RH
77 76 77 79 78 78 78 78 78 76 76 80 80 82 82 85 87 78 33 25 38 62 55 32 39 27 28 36 69 75 88 86 76 47 70 56 63 55 54 59 56 55 70 74 80
82 80 81 78 79 80 77 76 76 77 77 78 80 80 81 85 94 67 36 43 52 60 20 29 26 29 43 45 71 79 86 78 72 68 72 65 58 60 62 62 66 73 75 77 84
85 85 81 82 82 80 78 78 77 81 82 82 82 83 84 90 68 21 51 52 62 60 25 22 22 29 42 56 64 83 83 78 64 63 68 70 59 53 61 67 62 77 84 83 84
86 87 86 82 80 80 80 78 79 80 82 83 83 83 86 94 29 27 64 62 64 54 13 15 22 31 37 44 68 76 73 70 89 83 57 68 66 58 56 53 52 64 74 78 82
87 88 88 88 87 86 85 85 82 85 84 83 83 83 86 36 22 50 61 60 51 17 14 15 28 31 38 37 72 77 72 70 87 77 63 68 66 66 57 49 53 63 70 77 77
87 88 88 88 88 87 87 88 88 88 85 83 82 83 80 17 13 49 56 35 24 16 17 19 24 27 36 33 66 68 72 78 75 74 71 75 64 62 57 48 58 67 72 71 73
86 87 87 88 88 88 88 89 88 87 86 83 80 77 60 12 35 40 40 37 28 18 18 16 22 28 34 30 32 72 83 81 87 79 80 79 72 75 61 55 59 65 68 68 69
85 86 86 86 88 89 90 91 90 86 85 84 80 86 50 24 33 29 44 45 31 16 15 18 23 28 32 25 35 77 79 88 88 89 84 77 87 72 71 57 64 63 63 65 67
89 86 86 87 89 92 94 92 87 85 82 79 90 77 31 38 31 31 35 30 25 21 19 9 20 25 26 31 40 76 91 88 88 88 87 87 89 84 69 55 63 63 61 62 65
93 90 89 90 92 93 91 87 83 85 82 75 63 56 27 24 24 18 28 17 17 15 16 16 29 32 35 34 46 81 95 86 88 91 84 91 89 89 76 72 57 55 59 62 61
94 92 89 90 92 90 91 79 39 42 81 45 39 32 26 23 20 16 21 20 20 22 28 29 27 35 37 31 41 76 85 91 85 85 86 91 93 95 83 80 66 54 54 58 61
94 93 92 90 91 93 91 34 34 36 43 37 41 38 34 30 29 23 15 23 27 32 27 29 36 26 26 28 39 82 90 95 86 84 82 93 91 92 86 89 79 62 55 58 65
94 94 94 90 91 80 56 41 38 52 50 31 34 35 31 30 26 24 19 22 26 32 29 32 26 22 24 56 68 86 81 93 83 88 88 89 92 93 90 90 83 77 60 58 64
94 94 95 96 49 62 37 47 43 43 45 28 33 23 20 18 18 15 17 16 20 24 24 27 19 19 23 24 63 84 69 73 90 90 94 89 95 97 88 93 91 80 69 56 57
93 94 96 93 74 42 32 51 52 33 43 26 24 16 17 19 20 18 17 17 21 22 22 22 24 23 20 19 52 59 69 82 82 91 94 95 96 90 94 94 86 82 77 53 54
92 94 90 89 91 62 53 51 34 44 52 32 19 22 25 23 19 20 18 18 20 24 28 23 21 21 23 48 48 66 77 83 86 94 97 90 89 95 95 85 79 72 76 66 51
93 92 92 75 27 54 50 38 47 53 34 24 18 23 26 25 22 24 23 28 29 43 34 26 27 65 62 75 66 78 84 96 93 97 91 92 92 82 78 87 79 80 77 70 55
93 95 93 84 84 55 41 42 68 39 47 27 16 28 27 30 29 26 28 30 30 30 37 36 30 69 61 74 81 86 71 86 74 92 89 92 93 79 58 60 65 58 66 70 65
94 93 90 80 83 58 41 59 50 48 36 16 17 22 30 30 34 36 40 39 33 29 31 36 30 25 56 59 58 77 80 71 87 92 90 91 80 67 68 75 78 75 74 76 73
96 90 70 69 70 44 43 59 49 40 31 16 20 24 36 36 39 44 52 41 38 34 33 41 39 26 24 56 60 66 59 71 89 88 88 85 85 84 77 74 82 79 74 73 75
93 54 37 66 51 43 45 49 37 30 29 16 18 20 30 42 51 62 53 42 39 36 36 46 34 28 32 46 65 45 66 63 71 84 87 84 71 68 64 63 79 66 63 59 65
82 45 48 48 43 69 53 44 38 30 20 16 16 20 34 46 57 55 47 42 38 41 39 48 40 45 32 27 32 38 53 50 62 51 86 78 68 72 59 55 57 59 58 62 58
77 82 59 41 50 58 51 31 28 27 28 16 18 20 44 52 59 58 49 39 40 42 42 38 44 48 36 40 42 43 57 57 43 56 76 61 50 65 66 70 70 74 74 70 67
88 46 59 51 58 47 45 38 31 26 24 19 17 34 44 65 74 48 54 42 43 44 60 40 50 42 48 50 46 60 65 73 33 38 42 52 37 78 72 77 85 88 84 81 83
86 54 74 67 61 70 50 52 44 43 22 24 38 26 39 59 69 62 60 49 39 46 49 43 44 51 39 52 56 66 68 72 73 84 36 62 81 95 96 95 84 88 87 87 87
56 90 92 90 80 75 66 51 39 38 23 21 32 31 40 48 42 38 49 59 58 48 58 65 50 64 64 49 51 55 61 69 76 88 88 92 94 88 90 94 97 93 86 87 88
87 86 94 82 80 72 60 43 50 46 20 19 28 38 38 34 36 50 55 56 65 67 55 66 73 60 61 62 51 64 65 70 74 73 82 94 89 76 96 95 97 97 90 93 96
Wind_Speed
10 10 10 11 10 10 10 11 11 11 11 12 12 13 14 15 15 2 6 8 5 3 5 3 2 3 2 1 3 1 4 2 2 5 3 9 6 6 6 11 2 2 6 10 13
10 10 10 10 10 10 10 10 10 11 11 11 11 11 12 13 3 5 10 7 7 7 3 3 4 4 2 1 3 2 2 3 4 3 3 2 11 8 6 6 5 11 13 16 13
10 10 10 11 10 10 9 9 9 10 11 11 11 12 11 8 3 5 3 12 10 5 1 2 3 3 1 2 2 2 2 6 3 5 4 4 6 2 14 3 8 17 15 15 13
12 11 11 11 10 9 9 9 9 9 10 10 11 12 13 1 4 2 4 12 7 6 2 4 4 3 2 1 1 2 4 7 6 10 3 1 5 5 6 5 13 17 18 15 14
13 12 12 12 11 11 10 10 9 9 9 9 9 10 4 3 7 4 10 11 6 4 3 3 4 4 1 2 3 3 3 7 9 13 4 1 3 2 8 14 15 16 17 16 12
13 13 13 13 12 12 11 11 10 9 8 8 7 8 2 2 1 5 8 6 5 4 2 1 5 4 0 2 2 2 6 8 5 6 3 2 2 3 6 15 17 18 16 15 14
14 14 14 14 14 14 13 13 11 9 7 6 4 2 2 9 4 5 6 4 3 5 4 3 1 5 1 4 3 10 5 9 8 3 3 7 5 3 2 15 19 16 14 13 13
14 14 14 15 16 16 16 15 12 8 6 5 2 1 6 4 2 1 4 1 4 3 2 3 2 2 2 4 4 3 4 4 6 5 1 4 5 4 11 17 18 15 14 14 12
15 16 16 16 15 16 16 18 9 5 4 3 0 1 5 3 3 3 6 4 5 2 2 1 4 2 2 3 4 6 3 5 4 5 2 6 4 9 5 18 17 16 14 14 12
15 15 16 16 15 15 18 5 7 8 3 3 3 2 2 2 3 3 3 6 3 4 3 3 5 3 4 5 3 2 4 3 4 3 7 7 8 6 5 5 16 16 13 14 14
16 16 17 16 16 16 7 1 4 4 1 5 4 4 6 7 2 1 3 5 3 3 3 2 5 5 2 5 5 4 3 5 3 5 4 2 1 5 7 4 6 9 11 14 17
17 17 17 18 17 8 1 4 2 4 8 5 4 6 5 3 2 1 7 4 3 3 4 6 1 5 3 3 2 5 7 2 1 4 2 4 3 1 6 3 4 4 13 15 11
17 17 18 20 15 2 1 3 4 2 2 7 5 4 3 7 5 4 6 3 2 2 3 6 3 4 3 2 4 4 6 5 3 5 3 3 4 5 4 5 6 7 8 13 17
18 17 17 25 2 4 4 0 5 4 6 6 3 5 4 3 2 4 5 5 3 4 6 3 3 3 3 4 5 3 7 9 10 5 2 3 2 4 9 6 7 11 9 15 16
18 16 14 6 4 2 1 6 2 3 4 2 2 1 1 4 1 1 2 5 5 3 6 6 2 3 4 7 9 5 11 7 2 4 3 4 2 3 11 13 15 16 9 16 16
18 15 15 2 1 7 7 6 3 7 1 5 1 1 2 1 2 1 3 5 2 3 1 7 3 5 6 2 9 11 8 8 5 3 3 7 5 6 12 23 14 13 11 12 17
20 19 4 2 5 3 5 4 6 4 3 5 3 2 1 3 2 2 4 2 3 3 3 5 3 1 5 9 7 6 7 3 2 0 6 4 4 10 17 15 20 19 13 12 15
23 20 4 5 5 3 3 6 2 2 4 4 3 2 3 5 4 3 4 2 1 4 1 1 6 8 5 6 8 4 6 7 6 5 3 1 7 8 9 17 16 19 15 12 12
21 1 2 4 9 3 6 3 7 4 3 3 3 7 6 4 2 4 4 2 2 4 6 1 5 1 5 5 10 6 5 5 6 2 1 4 6 6 2 8 11 14 15 11 12
4 4 4 4 8 4 6 5 4 4 2 2 3 2 2 5 4 4 0 1 2 2 2 2 4 3 2 4 2 6 7 3 2 4 4 5 6 7 11 9 16 11 14 11 11
3 3 3 3 2 6 4 6 5 6 4 4 3 3 0 3 2 1 1 2 1 3 1 3 3 7 1 3 7 2 2 1 5 4 6 3 7 6 11 16 20 25 26 24 20
3 3 3 2 5 1 3 6 4 3 2 2 4 2 3 2 2 3 3 4 1 1 1 0 5 3 7 7 2 4 6 6 6 5 2 4 8 8 6 7 19 12 14 17 18
2 3 3 4 3 2 4 3 3 2 3 4 4 3 2 4 1 1 2 2 3 3 3 4 2 4 5 5 4 4 3 2 4 4 6 5 8 6 5 4 7 9 8 11 14
2 1 4 3 1 5 3 4 4 2 4 3 5 4 4 2 1 2 2 3 5 2 7 4 3 6 4 6 1 5 5 3 4 4 5 5 7 9 6 2 4 7 7 7 8
2 3 2 2 2 3 3 2 3 3 1 2 1 4 7 4 1 3 2 4 2 6 2 4 5 4 5 3 7 8 4 7 1 3 4 5 4 5 7 5 4 3 6 10 11
1 2 4 3 2 3 5 6 4 3 6 4 5 4 5 7 9 9 5 3 2 4 3 3 1 2 1 3 4 1 8 3 4 4 1 4 2 4 5 5 8 6 5 6 7
1 2 2 3 2 2 5 4 3 4 5 7 9 6 5 6 7 3 3 3 2 1 1 3 3 2 5 6 5 4 0 3 1 4 3 2 4 5 6 10 7 5 6 7 6
Wind_Direction
357 355 348 342 338 334 334 330 329 328 326 327 327 327 326 326 320 178 246 220 177 213 133 106 144 168 113 86 112 85 62 92 122 131 101 135 127 186 100 133 112 110 125 133 130
352 353 350 347 340 335 334 331 328 326 325 326 322 321 323 330 307 263 248 229 203 185 92 142 127 137 58 49 163 100 117 133 41 43 63 316 149 161 123 144 70 84 86 119 128
351 350 352 347 340 335 329 324 323 322 323 322 320 321 322 325 296 249 202 212 183 176 241 122 88 110 84 87 190 73 144 135 80 354 33 357 154 103 140 143 170 148 136 139 143
350 349 347 345 336 331 321 317 317 317 319 320 320 321 320 161 141 39 284 173 162 153 166 106 70 77 80 198 174 88 97 115 52 303 260 300 321 113 179 149 155 148 143 147 160
346 344 341 336 333 328 323 315 311 310 311 316 322 325 336 344 256 360 109 136 115 132 133 119 114 133 130 292 135 175 152 156 153 219 225 317 259 64 216 136 138 139 146 155 161
345 342 339 335 330 327 322 316 306 299 305 308 322 323 351 332 317 117 119 102 110 95 83 122 166 188 38 297 210 102 112 116 166 123 37 315 265 178 174 144 142 152 157 162 171
343 340 339 334 329 327 319 314 308 297 291 295 314 312 51 231 60 101 118 154 131 132 132 245 170 72 143 315 336 145 118 90 42 53 110 333 314 184 127 155 153 165 160 169 181
343 339 336 333 328 324 318 312 303 281 269 268 253 187 248 252 118 230 164 118 78 112 186 227 184 95 174 300 39 186 111 105 22 61 48 44 267 188 246 164 165 171 167 173 184
339 337 333 328 326 319 321 317 293 225 194 142 74 60 287 356 293 248 149 130 116 135 268 228 121 122 360 89 30 3 101 86 125 37 88 177 290 4 219 171 169 176 178 174 178
337 333 329 328 325 325 327 301 114 124 169 194 246 358 286 259 271 127 147 150 128 115 72 93 53 64 46 69 207 143 131 66 127 137 92 66 316 335 351 228 177 178 179 178 184
333 332 330 329 325 324 345 112 11 4 122 217 228 257 283 287 236 124 148 127 107 62 111 48 93 207 135 199 160 123 106 119 154 179 132 112 162 315 341 339 192 175 180 186 190
330 331 331 328 330 323 183 64 133 162 312 245 252 267 266 300 308 317 129 121 145 170 108 34 255 210 176 178 153 115 122 129 31 110 88 170 277 247 314 290 316 256 186 189 174
328 331 332 330 331 20 323 222 72 52 157 300 214 214 211 144 206 246 130 136 127 106 145 139 223 102 157 177 126 155 177 190 151 140 48 117 309 224 217 269 289 273 222 185 171
328 332 334 328 53 327 289 286 324 199 60 291 284 290 116 172 300 215 176 129 29 170 140 196 272 201 160 218 153 201 191 143 140 136 192 225 221 212 225 255 268 255 214 188 181
325 329 330 350 285 298 109 326 286 63 57 277 243 115 147 124 229 90 232 66 150 155 96 250 241 214 194 216 163 235 109 115 86 60 92 190 129 240 154 240 225 234 221 192 183
322 325 330 108 231 245 313 323 59 42 360 337 256 59 72 46 266 85 98 59 141 151 49 238 221 185 208 15 176 130 82 53 52 54 287 179 189 202 188 224 231 209 203 196 186
317 315 290 293 233 329 304 51 44 119 315 309 317 352 154 335 5 91 114 73 109 51 339 314 247 57 125 77 19 86 76 21 350 329 233 151 163 245 198 189 214 202 188 188 186
317 311 215 210 275 304 36 53 136 240 271 313 23 28 65 357 43 36 80 64 101 116 138 215 319 168 176 167 172 158 141 159 206 194 248 275 232 247 213 198 198 190 183 172 180
318 299 235 251 201 6 77 85 203 204 255 334 12 56 339 9 93 71 26 152 204 173 170 167 277 220 199 150 148 210 206 156 103 352 98 226 280 290 143 141 159 163 159 175 170
322 351 272 115 154 96 82 223 222 214 324 81 123 179 61 320 48 60 308 287 281 248 194 188 301 252 246 104 338 153 168 112 20 160 241 272 269 234 212 185 173 156 169 182 164
4 36 303 105 131 54 161 227 249 244 206 154 201 155 150 151 100 31 215 280 243 312 245 143 123 295 2 178 186 124 164 68 129 161 163 288 267 219 206 180 183 179 182 189 192
348 65 330 67 65 6 174 201 241 248 214 158 130 131 149 139 128 175 208 227 203 220 294 35 145 268 245 292 229 196 193 150 134 243 244 153 274 312 193 191 186 204 200 208 201
14 270 323 67 155 241 272 276 263 258 252 166 166 175 57 132 145 233 266 277 28 322 230 215 359 8 354 344 41 34 6 91 102 84 201 145 267 359 30 153 167 158 164 180 188
9 32 331 57 147 151 190 269 251 245 255 175 142 110 111 101 311 201 269 305 339 266 351 116 128 148 204 236 345 326 342 348 147 131 180 219 310 345 349 289 153 145 140 139 135
59 265 212 219 270 201 185 264 237 259 243 105 47 189 148 154 191 230 220 304 327 334 80 104 189 171 175 270 85 254 352 356 71 100 177 283 314 323 315 324 323 142 129 137 153
59 359 351 279 306 207 176 220 217 279 193 189 165 180 147 153 183 206 170 204 221 314 75 342 170 283 63 96 268 343 30 344 15 20 2 314 6 321 358 57 56 70 111 145 163
318 294 123 267 288 155 215 192 240 350 251 184 163 128 153 217 172 165 155 103 147 234 10 86 91 29 169 299 36 336 280 56 226 359 309 335 238 289 47 63 51 74 107 113 80